QPF
0.01 0.02 0.03 0.04 0.07 0.09 0.06 0.02 0.02 0.02 0.02 0.02 0.01 0.02 0.02 0.02 0.03 0.05 0.03 0.02 0.02 0.03 0.04 0.02 0.02 0.06 0.09 0.08 0.06 0.07 0.05 0.04 0.04 0.04 0.04 0.05 0.07 0.06 0.06 0.05 0.06 0.05 0.05 0.05 0.04 0.05 0.04 0.04 0.03
0.02 0.02 0.03 0.04 0.07 0.08 0.06 0.03 0.03 0.02 0.01 0.01 0.01 0.01 0.01 0.00 0.00 0.01 0.02 0.02 0.01 0.01 0.03 0.02 0.02 0.03 0.06 0.09 0.08 0.06 0.05 0.04 0.04 0.03 0.03 0.03 0.06 0.06 0.04 0.05 0.06 0.05 0.06 0.06 0.04 0.03 0.04 0.05 0.03
0.02 0.02 0.02 0.04 0.05 0.05 0.05 0.03 0.03 0.02 0.01 0.01 0.01 0.00 0.01 0.01 0.01 0.01 0.02 0.01 0.01 0.01 0.02 0.02 0.02 0.02 0.04 0.05 0.06 0.07 0.07 0.05 0.05 0.04 0.03 0.06 0.11 0.09 0.06 0.05 0.06 0.07 0.07 0.07 0.04 0.03 0.04 0.04 0.03
0.03 0.03 0.03 0.04 0.05 0.03 0.02 0.02 0.03 0.02 0.02 0.01 0.01 0.01 0.01 0.01 0.01 0.01 0.01 0.00 0.00 0.02 0.02 0.01 0.03 0.03 0.04 0.04 0.05 0.08 0.07 0.04 0.04 0.05 0.05 0.11 0.12 0.06 0.06 0.07 0.07 0.07 0.05 0.06 0.05 0.05 0.04 0.06 0.08
0.03 0.03 0.04 0.05 0.04 0.02 0.01 0.02 0.03 0.03 0.02 0.01 0.01 0.02 0.02 0.01 0.00 0.00 0.00 0.00 0.01 0.03 0.02 0.00 0.02 0.03 0.03 0.03 0.03 0.05 0.06 0.04 0.04 0.05 0.06 0.11 0.12 0.09 0.06 0.07 0.07 0.05 0.04 0.05 0.08 0.09 0.06 0.09 0.10
0.05 0.04 0.04 0.05 0.05 0.02 0.01 0.01 0.03 0.02 0.01 0.02 0.01 0.03 0.03 0.03 0.01 0.00 0.01 0.00 0.01 0.03 0.03 0.01 0.01 0.02 0.02 0.03 0.03 0.04 0.04 0.04 0.04 0.04 0.05 0.06 0.07 0.06 0.05 0.05 0.05 0.05 0.05 0.07 0.11 0.11 0.08 0.09 0.07
0.04 0.03 0.03 0.04 0.04 0.03 0.01 0.01 0.01 0.02 0.01 0.01 0.01 0.02 0.03 0.05 0.03 0.01 0.01 0.01 0.01 0.02 0.03 0.02 0.02 0.01 0.02 0.02 0.02 0.03 0.03 0.03 0.03 0.04 0.04 0.03 0.03 0.03 0.04 0.04 0.05 0.04 0.04 0.05 0.05 0.06 0.07 0.07 0.06
0.02 0.02 0.02 0.03 0.05 0.04 0.01 0.00 0.01 0.01 0.01 0.00 0.00 0.01 0.02 0.03 0.03 0.03 0.03 0.01 0.01 0.01 0.04 0.03 0.01 0.01 0.02 0.01 0.01 0.01 0.02 0.02 0.02 0.02 0.02 0.03 0.03 0.03 0.03 0.03 0.05 0.05 0.04 0.04 0.04 0.04 0.04 0.04 0.05
0.02 0.03 0.04 0.03 0.04 0.04 0.01 0.02 0.02 0.01 0.00 0.00 0.00 0.01 0.01 0.01 0.03 0.03 0.04 0.04 0.02 0.01 0.03 0.03 0.02 0.02 0.03 0.01 0.00 0.01 0.02 0.02 0.02 0.01 0.03 0.06 0.06 0.04 0.03 0.03 0.03 0.04 0.03 0.04 0.04 0.04 0.04 0.04 0.04
0.03 0.04 0.03 0.02 0.03 0.03 0.01 0.02 0.03 0.02 0.02 0.01 0.01 0.01 0.01 0.01 0.03 0.04 0.04 0.05 0.04 0.02 0.02 0.02 0.02 0.03 0.03 0.03 0.01 0.02 0.02 0.03 0.03 0.02 0.04 0.06 0.06 0.05 0.03 0.02 0.02 0.03 0.03 0.04 0.04 0.03 0.03 0.03 0.03
0.02 0.03 0.02 0.01 0.01 0.02 0.01 0.01 0.02 0.03 0.03 0.01 0.01 0.01 0.02 0.03 0.04 0.04 0.04 0.03 0.02 0.01 0.01 0.02 0.02 0.03 0.02 0.03 0.02 0.03 0.04 0.04 0.02 0.02 0.03 0.02 0.03 0.03 0.02 0.02 0.02 0.03 0.03 0.03 0.03 0.02 0.02 0.02 0.03
0.01 0.01 0.01 0.00 0.00 0.01 0.01 0.00 0.01 0.02 0.02 0.02 0.02 0.02 0.02 0.02 0.02 0.02 0.03 0.01 0.01 0.02 0.03 0.02 0.01 0.02 0.02 0.01 0.01 0.01 0.02 0.02 0.01 0.02 0.03 0.03 0.03 0.03 0.03 0.03 0.03 0.03 0.03 0.04 0.04 0.03 0.02 0.02 0.03
0.01 0.01 0.00 0.00 0.00 0.01 0.01 0.00 0.01 0.01 0.01 0.01 0.02 0.03 0.03 0.02 0.03 0.02 0.02 0.02 0.02 0.02 0.01 0.01 0.01 0.01 0.01 0.01 0.01 0.01 0.02 0.02 0.01 0.01 0.02 0.03 0.03 0.03 0.03 0.03 0.04 0.04 0.04 0.03 0.04 0.03 0.03 0.03 0.03
0.01 0.01 0.01 0.00 0.01 0.01 0.02 0.00 0.00 0.01 0.02 0.02 0.02 0.04 0.04 0.03 0.02 0.01 0.02 0.04 0.05 0.05 0.03 0.02 0.02 0.02 0.01 0.01 0.00 0.00 0.01 0.02 0.02 0.01 0.02 0.01 0.02 0.02 0.02 0.03 0.04 0.03 0.02 0.01 0.02 0.03 0.03 0.03 0.03
0.01 0.03 0.02 0.02 0.02 0.01 0.02 0.01 0.01 0.02 0.02 0.02 0.03 0.05 0.05 0.05 0.04 0.02 0.01 0.02 0.04 0.05 0.05 0.04 0.03 0.02 0.01 0.01 0.01 0.01 0.01 0.02 0.03 0.02 0.01 0.01 0.01 0.01 0.01 0.01 0.01 0.02 0.01 0.01 0.01 0.01 0.01 0.02 0.02
0.01 0.04 0.03 0.02 0.02 0.01 0.01 0.02 0.01 0.02 0.02 0.02 0.03 0.04 0.05 0.05 0.04 0.02 0.02 0.02 0.02 0.03 0.04 0.03 0.03 0.03 0.02 0.02 0.02 0.02 0.02 0.02 0.02 0.02 0.02 0.02 0.01 0.02 0.02 0.01 0.00 0.01 0.00 0.01 0.01 0.01 0.02 0.02 0.02
0.04 0.04 0.03 0.02 0.02 0.03 0.02 0.02 0.02 0.03 0.02 0.01 0.02 0.02 0.05 0.07 0.04 0.02 0.02 0.04 0.04 0.04 0.04 0.04 0.02 0.03 0.03 0.02 0.02 0.02 0.02 0.02 0.02 0.03 0.02 0.02 0.01 0.01 0.02 0.02 0.01 0.01 0.01 0.01 0.01 0.02 0.03 0.03 0.03
0.04 0.03 0.02 0.02 0.02 0.03 0.03 0.02 0.02 0.02 0.01 0.01 0.02 0.02 0.01 0.03 0.03 0.02 0.02 0.04 0.04 0.04 0.04 0.03 0.02 0.02 0.02 0.02 0.03 0.03 0.02 0.02 0.02 0.03 0.02 0.01 0.02 0.01 0.01 0.02 0.01 0.01 0.01 0.02 0.01 0.01 0.02 0.02 0.03
0.02 0.02 0.02 0.03 0.02 0.02 0.03 0.02 0.01 0.00 0.01 0.01 0.01 0.02 0.01 0.01 0.01 0.01 0.02 0.02 0.02 0.02 0.03 0.04 0.04 0.03 0.02 0.02 0.04 0.03 0.03 0.02 0.03 0.02 0.01 0.01 0.02 0.02 0.02 0.02 0.02 0.01 0.01 0.01 0.01 0.01 0.01 0.01 0.01
0.01 0.02 0.02 0.02 0.01 0.02 0.02 0.01 0.01 0.01 0.01 0.01 0.01 0.02 0.02 0.01 0.00 0.00 0.01 0.02 0.01 0.02 0.03 0.04 0.05 0.04 0.02 0.03 0.03 0.02 0.02 0.02 0.02 0.02 0.02 0.01 0.01 0.02 0.02 0.03 0.04 0.02 0.02 0.02 0.02 0.02 0.02 0.01 0.01
0.01 0.02 0.02 0.02 0.01 0.01 0.01 0.02 0.01 0.02 0.03 0.02 0.01 0.01 0.01 0.01 0.01 0.01 0.01 0.01 0.01 0.02 0.03 0.03 0.04 0.04 0.03 0.03 0.03 0.02 0.02 0.03 0.03 0.02 0.03 0.02 0.02 0.01 0.02 0.04 0.06 0.06 0.04 0.02 0.01 0.01 0.02 0.03 0.03
0.02 0.01 0.01 0.01 0.02 0.04 0.02 0.05 0.03 0.02 0.02 0.01 0.01 0.01 0.01 0.02 0.01 0.01 0.01 0.01 0.01 0.01 0.03 0.04 0.05 0.07 0.05 0.03 0.03 0.03 0.04 0.04 0.03 0.02 0.01 0.01 0.01 0.01 0.01 0.03 0.04 0.04 0.04 0.02 0.01 0.01 0.02 0.03 0.05
0.02 0.01 0.00 0.00 0.02 0.03 0.02 0.04 0.03 0.02 0.02 0.02 0.03 0.02 0.01 0.01 0.01 0.01 0.01 0.02 0.01 0.01 0.01 0.02 0.04 0.07 0.08 0.07 0.06 0.05 0.04 0.04 0.03 0.02 0.02 0.01 0.01 0.00 0.00 0.01 0.01 0.01 0.02 0.02 0.01 0.01 0.02 0.03 0.03
0.02 0.01 0.01 0.01 0.03 0.04 0.02 0.03 0.03 0.02 0.02 0.03 0.05 0.06 0.02 0.01 0.01 0.01 0.02 0.01 0.01 0.01 0.01 0.01 0.04 0.05 0.05 0.06 0.06 0.07 0.06 0.05 0.04 0.03 0.03 0.02 0.02 0.02 0.01 0.01 0.03 0.02 0.02 0.02 0.01 0.02 0.03 0.03 0.03
0.02 0.03 0.05 0.05 0.05 0.04 0.01 0.02 0.02 0.01 0.00 0.00 0.01 0.01 0.01 0.01 0.01 0.01 0.01 0.02 0.02 0.01 0.01 0.01 0.03 0.05 0.05 0.06 0.07 0.06 0.05 0.05 0.05 0.04 0.04 0.04 0.03 0.03 0.03 0.02 0.02 0.02 0.02 0.02 0.02 0.02 0.02 0.03 0.02
0.02 0.04 0.07 0.06 0.05 0.04 0.02 0.02 0.02 0.01 0.00 0.00 0.00 0.01 0.01 0.01 0.01 0.01 0.01 0.02 0.02 0.02 0.02 0.02 0.03 0.04 0.04 0.05 0.06 0.05 0.06 0.06 0.05 0.03 0.02 0.03 0.03 0.02 0.02 0.01 0.02 0.02 0.01 0.03 0.04 0.04 0.05 0.04 0.04
0.02 0.02 0.03 0.04 0.03 0.03 0.02 0.02 0.02 0.01 0.00 0.00 0.00 0.00 0.00 0.00 0.01 0.01 0.01 0.02 0.02 0.02 0.03 0.03 0.03 0.04 0.04 0.04 0.03 0.03 0.03 0.03 0.03 0.02 0.02 0.02 0.02 0.02 0.02 0.01 0.01 0.01 0.01 0.02 0.04 0.05 0.05 0.05 0.05
0.01 0.01 0.02 0.04 0.06 0.05 0.02 0.02 0.02 0.01 0.00 0.00 0.00 0.01 0.00 0.00 0.01 0.01 0.02 0.02 0.02 0.02 0.03 0.03 0.03 0.03 0.03 0.03 0.04 0.04 0.03 0.03 0.02 0.02 0.03 0.02 0.02 0.02 0.02 0.01 0.00 0.01 0.01 0.01 0.01 0.02 0.03 0.04 0.03
0.01 0.01 0.01 0.02 0.03 0.04 0.04 0.02 0.01 0.02 0.01 0.00 0.00 0.00 0.00 0.00 0.00 0.01 0.02 0.02 0.02 0.02 0.03 0.03 0.02 0.02 0.02 0.02 0.03 0.04 0.05 0.05 0.04 0.03 0.03 0.02 0.02 0.02 0.02 0.01 0.01 0.00 0.00 0.00 0.01 0.01 0.01 0.02 0.02
0.00 0.00 0.01 0.02 0.02 0.02 0.04 0.02 0.00 0.00 0.00 0.00 0.01 0.01 0.01 0.01 0.01 0.01 0.01 0.03 0.03 0.02 0.02 0.02 0.02 0.01 0.02 0.02 0.03 0.03 0.04 0.04 0.05 0.05 0.04 0.03 0.03 0.03 0.02 0.02 0.01 0.01 0.00 0.01 0.02 0.02 0.01 0.01 0.01
MSLP
1008.63 1009.27 1009.95 1010.56 1010.98 1011.15 1011.05 1010.71 1010.23 1009.74 1009.37 1009.23 1009.37 1009.77 1010.35 1010.99 1011.57 1011.97 1012.14 1012.08 1011.86 1011.56 1011.28 1011.09 1011.03 1011.10 1011.24 1011.39 1011.50 1011.53 1011.47 1011.35 1011.22 1011.13 1011.11 1011.18 1011.31 1011.49 1011.66 1011.78 1011.86 1011.87 1011.86 1011.83 1011.82 1011.85 1011.90 1011.97 1012.03
1008.84 1009.58 1010.29 1010.86 1011.19 1011.22 1010.96 1010.46 1009.86 1009.29 1008.89 1008.76 1008.93 1009.37 1010.00 1010.68 1011.27 1011.69 1011.87 1011.84 1011.66 1011.41 1011.20 1011.10 1011.13 1011.27 1011.47 1011.66 1011.79 1011.82 1011.75 1011.61 1011.46 1011.34 1011.30 1011.34 1011.46 1011.62 1011.77 1011.89 1011.96 1011.99 1011.98 1011.98 1011.99 1012.04 1012.10 1012.17 1012.23
1009.13 1009.92 1010.63 1011.14 1011.37 1011.27 1010.88 1010.26 1009.57 1008.95 1008.54 1008.42 1008.61 1009.08 1009.71 1010.39 1010.97 1011.37 1011.55 1011.54 1011.39 1011.21 1011.07 1011.05 1011.16 1011.38 1011.64 1011.87 1012.02 1012.06 1011.98 1011.84 1011.68 1011.55 1011.49 1011.52 1011.62 1011.76 1011.90 1012.01 1012.08 1012.12 1012.14 1012.16 1012.19 1012.25 1012.33 1012.40 1012.45
1009.50 1010.30 1010.98 1011.42 1011.54 1011.33 1010.84 1010.15 1009.42 1008.79 1008.38 1008.28 1008.48 1008.94 1009.55 1010.18 1010.72 1011.08 1011.24 1011.23 1011.11 1010.98 1010.92 1010.97 1011.15 1011.42 1011.72 1011.98 1012.14 1012.19 1012.13 1012.00 1011.85 1011.73 1011.68 1011.71 1011.81 1011.94 1012.07 1012.18 1012.26 1012.31 1012.36 1012.40 1012.46 1012.53 1012.61 1012.67 1012.71
1009.92 1010.70 1011.31 1011.66 1011.69 1011.40 1010.85 1010.14 1009.41 1008.80 1008.43 1008.34 1008.54 1008.97 1009.52 1010.08 1010.55 1010.85 1010.97 1010.95 1010.86 1010.78 1010.77 1010.87 1011.10 1011.40 1011.72 1011.98 1012.16 1012.22 1012.18 1012.08 1011.96 1011.88 1011.86 1011.91 1012.02 1012.16 1012.30 1012.42 1012.52 1012.59 1012.66 1012.72 1012.80 1012.88 1012.95 1013.00 1013.02
1010.36 1011.07 1011.60 1011.85 1011.79 1011.44 1010.87 1010.18 1009.50 1008.95 1008.63 1008.57 1008.75 1009.13 1009.61 1010.07 1010.45 1010.68 1010.76 1010.73 1010.66 1010.61 1010.64 1010.78 1011.03 1011.33 1011.64 1011.90 1012.07 1012.14 1012.13 1012.08 1012.02 1012.00 1012.04 1012.14 1012.28 1012.44 1012.60 1012.73 1012.84 1012.93 1013.02 1013.10 1013.19 1013.28 1013.34 1013.36 1013.35
1010.77 1011.39 1011.79 1011.93 1011.80 1011.42 1010.86 1010.23 1009.63 1009.16 1008.89 1008.86 1009.03 1009.35 1009.74 1010.11 1010.39 1010.56 1010.60 1010.57 1010.52 1010.50 1010.56 1010.72 1010.96 1011.24 1011.52 1011.75 1011.91 1012.00 1012.03 1012.03 1012.05 1012.11 1012.22 1012.38 1012.57 1012.76 1012.93 1013.08 1013.20 1013.30 1013.40 1013.50 1013.59 1013.67 1013.72 1013.72 1013.68
1011.10 1011.59 1011.86 1011.89 1011.69 1011.29 1010.77 1010.21 1009.70 1009.32 1009.13 1009.12 1009.27 1009.54 1009.84 1010.13 1010.34 1010.45 1010.48 1010.45 1010.42 1010.44 1010.52 1010.67 1010.89 1011.14 1011.38 1011.58 1011.72 1011.82 1011.90 1011.97 1012.08 1012.23 1012.42 1012.65 1012.88 1013.10 1013.28 1013.43 1013.55 1013.66 1013.76 1013.86 1013.95 1014.03 1014.07 1014.06 1014.00
1011.31 1011.66 1011.79 1011.72 1011.45 1011.04 1010.56 1010.08 1009.67 1009.39 1009.25 1009.27 1009.41 1009.63 1009.87 1010.09 1010.24 1010.33 1010.36 1010.36 1010.37 1010.41 1010.51 1010.66 1010.85 1011.05 1011.25 1011.41 1011.55 1011.66 1011.79 1011.94 1012.13 1012.37 1012.64 1012.93 1013.20 1013.43 1013.62 1013.76 1013.87 1013.96 1014.06 1014.15 1014.25 1014.32 1014.36 1014.36 1014.30
1011.37 1011.59 1011.59 1011.41 1011.09 1010.68 1010.24 1009.84 1009.52 1009.32 1009.24 1009.28 1009.42 1009.60 1009.80 1009.97 1010.10 1010.19 1010.24 1010.29 1010.34 1010.41 1010.53 1010.67 1010.83 1010.99 1011.14 1011.28 1011.41 1011.55 1011.72 1011.93 1012.21 1012.52 1012.86 1013.20 1013.49 1013.74 1013.92 1014.05 1014.14 1014.21 1014.30 1014.39 1014.49 1014.57 1014.63 1014.64 1014.61
1011.30 1011.40 1011.29 1011.02 1010.66 1010.25 1009.85 1009.52 1009.27 1009.14 1009.11 1009.17 1009.30 1009.46 1009.64 1009.80 1009.93 1010.05 1010.14 1010.23 1010.32 1010.44 1010.56 1010.70 1010.83 1010.96 1011.08 1011.19 1011.32 1011.48 1011.70 1011.98 1012.31 1012.69 1013.08 1013.44 1013.76 1014.01 1014.18 1014.29 1014.36 1014.43 1014.50 1014.60 1014.71 1014.81 1014.90 1014.95 1014.96
1011.13 1011.13 1010.93 1010.60 1010.20 1009.80 1009.44 1009.16 1008.97 1008.89 1008.89 1008.97 1009.10 1009.26 1009.43 1009.60 1009.76 1009.91 1010.06 1010.20 1010.34 1010.48 1010.61 1010.74 1010.85 1010.95 1011.05 1011.15 1011.29 1011.48 1011.73 1012.05 1012.44 1012.85 1013.27 1013.66 1013.98 1014.22 1014.40 1014.50 1014.57 1014.64 1014.72 1014.82 1014.95 1015.09 1015.22 1015.31 1015.37
1010.91 1010.83 1010.57 1010.20 1009.79 1009.40 1009.06 1008.82 1008.67 1008.62 1008.64 1008.73 1008.86 1009.03 1009.22 1009.42 1009.62 1009.82 1010.01 1010.20 1010.37 1010.53 1010.67 1010.78 1010.88 1010.97 1011.06 1011.16 1011.32 1011.53 1011.81 1012.16 1012.57 1013.00 1013.43 1013.82 1014.15 1014.40 1014.58 1014.70 1014.79 1014.88 1014.98 1015.11 1015.27 1015.44 1015.61 1015.75 1015.87
1010.68 1010.55 1010.25 1009.86 1009.46 1009.08 1008.77 1008.55 1008.41 1008.37 1008.39 1008.48 1008.63 1008.81 1009.03 1009.27 1009.52 1009.77 1010.02 1010.24 1010.44 1010.60 1010.74 1010.84 1010.93 1011.01 1011.10 1011.22 1011.40 1011.63 1011.93 1012.30 1012.70 1013.14 1013.56 1013.94 1014.28 1014.55 1014.76 1014.91 1015.05 1015.18 1015.32 1015.48 1015.67 1015.87 1016.07 1016.26 1016.42
1010.47 1010.31 1010.00 1009.62 1009.22 1008.86 1008.57 1008.35 1008.21 1008.14 1008.16 1008.24 1008.39 1008.59 1008.85 1009.14 1009.45 1009.76 1010.05 1010.30 1010.51 1010.68 1010.80 1010.90 1010.98 1011.07 1011.18 1011.34 1011.54 1011.79 1012.10 1012.46 1012.86 1013.26 1013.66 1014.04 1014.38 1014.67 1014.92 1015.13 1015.33 1015.51 1015.71 1015.91 1016.13 1016.35 1016.57 1016.78 1016.98
1010.30 1010.11 1009.81 1009.45 1009.08 1008.73 1008.44 1008.20 1008.03 1007.93 1007.91 1007.97 1008.12 1008.35 1008.65 1009.01 1009.38 1009.75 1010.09 1010.37 1010.59 1010.75 1010.87 1010.96 1011.05 1011.16 1011.31 1011.50 1011.74 1012.02 1012.33 1012.68 1013.04 1013.40 1013.76 1014.12 1014.45 1014.77 1015.07 1015.35 1015.61 1015.87 1016.11 1016.35 1016.59 1016.83 1017.05 1017.27 1017.48
1010.12 1009.94 1009.65 1009.33 1008.99 1008.66 1008.36 1008.09 1007.86 1007.70 1007.62 1007.64 1007.78 1008.03 1008.39 1008.81 1009.27 1009.70 1010.09 1010.41 1010.64 1010.81 1010.92 1011.02 1011.13 1011.28 1011.47 1011.71 1011.99 1012.30 1012.62 1012.94 1013.26 1013.57 1013.89 1014.20 1014.53 1014.86 1015.20 1015.55 1015.88 1016.20 1016.49 1016.76 1017.01 1017.24 1017.46 1017.67 1017.88
1009.92 1009.74 1009.50 1009.23 1008.94 1008.62 1008.29 1007.96 1007.65 1007.40 1007.24 1007.21 1007.33 1007.61 1008.02 1008.52 1009.06 1009.58 1010.03 1010.39 1010.65 1010.83 1010.96 1011.07 1011.21 1011.40 1011.65 1011.95 1012.29 1012.63 1012.95 1013.26 1013.53 1013.79 1014.04 1014.31 1014.61 1014.95 1015.32 1015.71 1016.10 1016.46 1016.79 1017.08 1017.33 1017.54 1017.74 1017.94 1018.15
1009.64 1009.51 1009.34 1009.13 1008.89 1008.58 1008.22 1007.82 1007.40 1007.04 1006.78 1006.67 1006.77 1007.06 1007.52 1008.11 1008.75 1009.36 1009.90 1010.31 1010.61 1010.81 1010.95 1011.09 1011.27 1011.51 1011.82 1012.19 1012.58 1012.97 1013.31 1013.60 1013.84 1014.04 1014.23 1014.45 1014.71 1015.03 1015.41 1015.82 1016.25 1016.64 1016.99 1017.29 1017.52 1017.71 1017.89 1018.07 1018.28
1009.27 1009.22 1009.14 1009.03 1008.84 1008.55 1008.15 1007.66 1007.12 1006.62 1006.24 1006.05 1006.10 1006.40 1006.92 1007.59 1008.34 1009.06 1009.68 1010.17 1010.51 1010.74 1010.91 1011.07 1011.28 1011.57 1011.95 1012.38 1012.84 1013.28 1013.65 1013.94 1014.16 1014.31 1014.45 1014.61 1014.83 1015.12 1015.49 1015.90 1016.33 1016.74 1017.10 1017.38 1017.60 1017.76 1017.91 1018.08 1018.29
1008.82 1008.88 1008.93 1008.93 1008.81 1008.54 1008.09 1007.50 1006.84 1006.19 1005.68 1005.39 1005.39 1005.69 1006.26 1007.01 1007.86 1008.69 1009.41 1009.97 1010.36 1010.62 1010.81 1010.99 1011.22 1011.55 1011.98 1012.48 1013.00 1013.49 1013.91 1014.22 1014.43 1014.57 1014.67 1014.78 1014.96 1015.21 1015.55 1015.95 1016.37 1016.77 1017.12 1017.39 1017.59 1017.73 1017.86 1018.02 1018.23
1008.33 1008.53 1008.73 1008.85 1008.81 1008.56 1008.07 1007.39 1006.59 1005.80 1005.15 1004.76 1004.70 1004.99 1005.60 1006.43 1007.38 1008.30 1009.11 1009.74 1010.18 1010.47 1010.66 1010.84 1011.08 1011.43 1011.89 1012.44 1013.02 1013.57 1014.04 1014.40 1014.63 1014.77 1014.85 1014.94 1015.08 1015.30 1015.61 1015.98 1016.38 1016.77 1017.10 1017.35 1017.54 1017.66 1017.78 1017.92 1018.13
1007.84 1008.21 1008.57 1008.82 1008.86 1008.63 1008.11 1007.33 1006.41 1005.48 1004.71 1004.22 1004.10 1004.38 1005.01 1005.90 1006.93 1007.94 1008.83 1009.51 1009.99 1010.29 1010.48 1010.64 1010.87 1011.22 1011.69 1012.26 1012.88 1013.49 1014.02 1014.43 1014.71 1014.87 1014.97 1015.06 1015.18 1015.38 1015.66 1016.00 1016.38 1016.75 1017.07 1017.31 1017.48 1017.59 1017.70 1017.83 1018.03
1007.42 1007.95 1008.46 1008.83 1008.95 1008.73 1008.17 1007.33 1006.30 1005.26 1004.38 1003.80 1003.63 1003.89 1004.54 1005.48 1006.56 1007.63 1008.58 1009.31 1009.81 1010.10 1010.28 1010.42 1010.61 1010.93 1011.38 1011.96 1012.61 1013.26 1013.85 1014.32 1014.65 1014.87 1015.00 1015.11 1015.24 1015.42 1015.69 1016.02 1016.38 1016.73 1017.04 1017.27 1017.44 1017.54 1017.63 1017.75 1017.94
1007.09 1007.77 1008.41 1008.87 1009.03 1008.83 1008.24 1007.34 1006.23 1005.11 1004.15 1003.52 1003.30 1003.55 1004.20 1005.16 1006.28 1007.39 1008.37 1009.13 1009.64 1009.94 1010.08 1010.19 1010.34 1010.62 1011.04 1011.60 1012.26 1012.93 1013.56 1014.09 1014.48 1014.76 1014.94 1015.08 1015.23 1015.42 1015.68 1016.00 1016.35 1016.70 1017.00 1017.24 1017.40 1017.51 1017.59 1017.70 1017.85
1006.84 1007.64 1008.36 1008.88 1009.07 1008.86 1008.25 1007.30 1006.16 1005.00 1004.00 1003.34 1003.10 1003.33 1003.98 1004.94 1006.07 1007.21 1008.20 1008.98 1009.49 1009.78 1009.91 1009.98 1010.10 1010.33 1010.71 1011.24 1011.88 1012.56 1013.21 1013.78 1014.23 1014.56 1014.79 1014.98 1015.15 1015.36 1015.63 1015.94 1016.29 1016.64 1016.95 1017.19 1017.37 1017.48 1017.56 1017.65 1017.77
1006.67 1007.52 1008.28 1008.80 1008.98 1008.75 1008.12 1007.17 1006.02 1004.87 1003.88 1003.22 1002.98 1003.21 1003.85 1004.80 1005.92 1007.04 1008.04 1008.82 1009.34 1009.63 1009.77 1009.83 1009.92 1010.11 1010.45 1010.95 1011.55 1012.21 1012.86 1013.45 1013.93 1014.30 1014.58 1014.80 1015.01 1015.24 1015.51 1015.83 1016.18 1016.53 1016.85 1017.12 1017.31 1017.44 1017.52 1017.60 1017.70
1006.50 1007.36 1008.09 1008.57 1008.70 1008.45 1007.81 1006.88 1005.77 1004.67 1003.73 1003.12 1002.91 1003.14 1003.76 1004.69 1005.77 1006.87 1007.85 1008.63 1009.16 1009.48 1009.63 1009.71 1009.80 1009.98 1010.30 1010.75 1011.31 1011.94 1012.57 1013.14 1013.63 1014.02 1014.33 1014.58 1014.81 1015.06 1015.34 1015.67 1016.02 1016.38 1016.72 1017.00 1017.22 1017.37 1017.47 1017.54 1017.63
1006.27 1007.09 1007.74 1008.13 1008.20 1007.90 1007.28 1006.39 1005.37 1004.36 1003.53 1002.99 1002.84 1003.08 1003.69 1004.57 1005.60 1006.65 1007.60 1008.37 1008.93 1009.28 1009.48 1009.61 1009.73 1009.93 1010.24 1010.66 1011.18 1011.76 1012.35 1012.90 1013.37 1013.75 1014.07 1014.33 1014.58 1014.84 1015.13 1015.46 1015.82 1016.19 1016.54 1016.84 1017.09 1017.27 1017.40 1017.49 1017.57
1005.95 1006.66 1007.19 1007.47 1007.45 1007.12 1006.52 1005.71 1004.81 1003.95 1003.25 1002.83 1002.74 1003.01 1003.59 1004.42 1005.38 1006.36 1007.27 1008.02 1008.60 1009.01 1009.28 1009.47 1009.66 1009.91 1010.23 1010.64 1011.13 1011.67 1012.20 1012.70 1013.14 1013.51 1013.81 1014.08 1014.33 1014.60 1014.90 1015.24 1015.60 1015.98 1016.34 1016.67 1016.94 1017.15 1017.31 1017.43 1017.53
Thickness
5808 5811 5810 5798 5776 5763 5763 5774 5782 5780 5782 5790 5793 5789 5778 5769 5759 5748 5767 5780 5779 5776 5773 5771 5770 5769 5770 5770 5769 5767 5766 5765 5765 5764 5764 5764 5764 5763 5762 5761 5761 5761 5761 5760 5760 5760 5760 5760 5760
5810 5812 5802 5785 5764 5752 5759 5774 5774 5778 5785 5792 5791 5788 5778 5769 5772 5768 5771 5777 5778 5775 5772 5769 5767 5767 5766 5766 5765 5764 5763 5762 5762 5761 5761 5761 5761 5760 5759 5758 5758 5758 5757 5757 5757 5757 5757 5757 5757
5808 5809 5790 5775 5763 5757 5760 5773 5777 5784 5791 5789 5783 5782 5773 5765 5771 5769 5773 5777 5776 5773 5769 5766 5765 5764 5764 5763 5762 5761 5760 5759 5759 5759 5758 5758 5759 5758 5756 5755 5755 5754 5754 5754 5754 5753 5754 5753 5753
5805 5795 5785 5769 5759 5770 5774 5777 5783 5780 5783 5787 5783 5772 5769 5774 5773 5773 5776 5776 5773 5770 5766 5763 5762 5761 5761 5760 5759 5758 5757 5756 5756 5755 5755 5756 5757 5756 5753 5752 5751 5751 5750 5750 5750 5750 5750 5750 5750
5801 5783 5767 5758 5761 5774 5781 5785 5785 5777 5776 5780 5778 5764 5759 5771 5776 5775 5774 5774 5770 5767 5764 5760 5759 5758 5757 5756 5756 5755 5754 5753 5752 5752 5751 5752 5752 5751 5749 5748 5747 5747 5746 5746 5746 5746 5746 5746 5746
5784 5777 5757 5750 5758 5771 5780 5785 5782 5776 5775 5776 5773 5762 5756 5769 5770 5770 5772 5770 5768 5765 5762 5758 5756 5755 5754 5753 5752 5751 5750 5749 5748 5748 5747 5747 5747 5746 5744 5743 5743 5742 5742 5742 5742 5742 5743 5743 5743
5774 5766 5756 5756 5755 5761 5773 5785 5778 5772 5769 5772 5776 5761 5756 5763 5767 5769 5769 5768 5766 5763 5760 5756 5754 5752 5750 5749 5748 5747 5746 5746 5745 5744 5743 5743 5742 5741 5740 5739 5739 5738 5738 5738 5738 5738 5739 5739 5739
5783 5769 5758 5756 5753 5755 5774 5780 5779 5773 5769 5779 5778 5760 5751 5760 5766 5767 5765 5764 5762 5760 5758 5756 5753 5750 5748 5746 5745 5744 5743 5742 5741 5740 5739 5738 5738 5737 5736 5735 5734 5734 5734 5734 5734 5734 5735 5735 5736
5786 5760 5748 5754 5755 5758 5773 5772 5775 5780 5774 5773 5773 5768 5764 5765 5764 5760 5758 5756 5756 5756 5756 5754 5752 5750 5747 5745 5742 5741 5740 5739 5738 5737 5736 5735 5734 5733 5732 5731 5730 5730 5730 5730 5731 5731 5731 5732 5732
5774 5749 5752 5767 5769 5766 5770 5769 5771 5768 5761 5761 5762 5763 5765 5761 5758 5753 5750 5748 5748 5749 5751 5751 5749 5748 5745 5743 5740 5739 5737 5736 5735 5735 5733 5733 5732 5730 5728 5726 5726 5726 5727 5727 5728 5728 5729 5729 5730
5771 5756 5763 5770 5775 5772 5767 5767 5771 5761 5750 5755 5754 5755 5757 5755 5752 5750 5749 5747 5747 5747 5748 5748 5746 5745 5743 5741 5739 5737 5735 5733 5733 5732 5731 5730 5729 5727 5725 5723 5723 5723 5723 5724 5725 5725 5726 5726 5727
5767 5765 5768 5769 5773 5770 5765 5764 5761 5756 5753 5762 5762 5758 5754 5750 5748 5747 5746 5746 5746 5744 5743 5744 5744 5742 5741 5738 5736 5734 5732 5730 5729 5728 5727 5726 5725 5724 5723 5721 5721 5721 5721 5721 5721 5722 5723 5723 5723
5762 5762 5767 5769 5769 5767 5764 5758 5755 5753 5759 5762 5760 5755 5750 5748 5748 5748 5749 5747 5745 5742 5740 5740 5741 5740 5738 5735 5733 5731 5728 5726 5725 5724 5723 5722 5721 5720 5720 5718 5718 5718 5718 5718 5718 5718 5718 5718 5718
5762 5761 5762 5764 5764 5764 5757 5754 5752 5750 5757 5756 5752 5749 5748 5746 5746 5745 5745 5743 5742 5741 5739 5739 5738 5737 5735 5731 5729 5726 5724 5722 5721 5720 5719 5718 5717 5716 5716 5714 5714 5714 5715 5714 5714 5714 5713 5713 5713
5764 5753 5752 5756 5759 5759 5754 5740 5744 5752 5754 5748 5746 5744 5744 5744 5743 5742 5742 5742 5740 5740 5739 5736 5735 5734 5731 5728 5725 5723 5721 5719 5717 5716 5715 5714 5714 5713 5712 5711 5710 5711 5711 5711 5710 5710 5710 5708 5708
5755 5743 5733 5747 5754 5755 5742 5722 5741 5752 5748 5741 5741 5741 5739 5739 5741 5742 5742 5741 5740 5738 5736 5734 5733 5730 5727 5724 5722 5720 5718 5715 5713 5712 5711 5711 5710 5709 5707 5707 5706 5707 5707 5707 5706 5705 5704 5703 5702
5739 5728 5728 5738 5752 5750 5739 5725 5739 5749 5745 5738 5738 5738 5736 5735 5737 5740 5740 5738 5737 5736 5734 5731 5729 5726 5724 5721 5719 5716 5714 5712 5710 5709 5708 5707 5707 5705 5704 5703 5703 5703 5703 5702 5702 5701 5700 5697 5697
5725 5728 5730 5731 5742 5741 5732 5728 5737 5744 5742 5737 5736 5735 5734 5734 5735 5738 5739 5737 5736 5735 5733 5729 5726 5724 5721 5718 5715 5712 5710 5709 5707 5706 5704 5704 5703 5702 5700 5699 5699 5699 5698 5697 5697 5695 5696 5695 5694
5736 5730 5727 5733 5742 5735 5729 5729 5733 5739 5737 5734 5732 5732 5732 5734 5738 5739 5737 5736 5733 5731 5729 5725 5722 5720 5717 5713 5709 5706 5704 5704 5703 5702 5702 5701 5700 5699 5697 5696 5696 5695 5694 5693 5692 5691 5690 5690 5691
5733 5724 5723 5730 5740 5733 5726 5727 5734 5736 5733 5733 5732 5731 5732 5732 5733 5733 5732 5730 5729 5726 5724 5722 5719 5717 5714 5711 5708 5705 5703 5701 5700 5699 5699 5698 5697 5696 5695 5693 5692 5692 5690 5689 5689 5688 5685 5686 5688
5728 5722 5721 5720 5728 5732 5724 5717 5724 5733 5735 5734 5735 5734 5733 5731 5730 5729 5728 5726 5725 5722 5721 5720 5717 5714 5712 5709 5706 5703 5701 5698 5695 5694 5694 5695 5694 5693 5692 5691 5690 5689 5688 5686 5685 5685 5683 5680 5683
5718 5729 5727 5722 5714 5711 5719 5697 5715 5726 5724 5727 5729 5730 5730 5729 5729 5727 5725 5723 5721 5721 5720 5718 5715 5712 5710 5708 5703 5699 5695 5691 5691 5692 5691 5692 5692 5691 5690 5689 5688 5687 5686 5684 5683 5683 5682 5679 5676
5725 5733 5728 5723 5716 5711 5717 5704 5710 5724 5715 5720 5724 5726 5726 5726 5726 5723 5722 5720 5720 5718 5716 5714 5712 5710 5708 5706 5702 5698 5694 5692 5691 5690 5689 5688 5689 5688 5688 5687 5686 5685 5684 5683 5682 5681 5680 5678 5676
5732 5727 5725 5724 5714 5695 5712 5705 5700 5714 5716 5718 5721 5721 5722 5722 5722 5720 5719 5718 5715 5714 5712 5710 5707 5706 5705 5703 5700 5696 5692 5690 5687 5686 5684 5684 5685 5685 5685 5685 5684 5683 5682 5681 5680 5679 5678 5677 5676
5724 5707 5691 5690 5688 5695 5718 5707 5701 5717 5725 5723 5718 5717 5718 5718 5716 5714 5712 5709 5707 5707 5706 5705 5703 5701 5701 5700 5697 5695 5692 5689 5686 5684 5683 5682 5682 5681 5682 5683 5682 5682 5681 5680 5679 5677 5676 5675 5674
5717 5709 5684 5675 5684 5696 5708 5699 5705 5722 5725 5724 5720 5716 5714 5711 5710 5708 5707 5704 5702 5701 5701 5701 5699 5697 5696 5696 5695 5693 5691 5688 5686 5685 5683 5682 5681 5681 5681 5681 5680 5680 5680 5679 5677 5676 5675 5674 5672
5710 5708 5712 5697 5695 5690 5697 5701 5706 5716 5715 5715 5713 5709 5706 5706 5704 5703 5702 5700 5699 5697 5696 5695 5695 5693 5693 5692 5691 5690 5689 5687 5685 5684 5684 5682 5681 5681 5680 5679 5678 5677 5677 5676 5675 5673 5672 5672 5670
5721 5715 5706 5691 5678 5675 5691 5695 5690 5698 5702 5706 5704 5702 5701 5701 5700 5698 5697 5695 5694 5693 5692 5691 5690 5689 5689 5689 5688 5687 5685 5685 5684 5682 5681 5680 5680 5679 5678 5676 5675 5674 5674 5673 5672 5670 5669 5668 5667
5711 5707 5704 5698 5694 5677 5672 5681 5708 5703 5702 5701 5700 5698 5697 5696 5695 5693 5691 5690 5690 5689 5688 5686 5685 5685 5684 5684 5683 5683 5681 5681 5680 5679 5678 5677 5677 5676 5674 5673 5672 5671 5670 5670 5668 5667 5666 5664 5663
5713 5707 5701 5683 5683 5688 5676 5678 5712 5708 5705 5702 5698 5696 5695 5693 5691 5689 5687 5684 5683 5682 5682 5680 5680 5679 5678 5678 5678 5677 5677 5676 5675 5674 5674 5674 5673 5672 5671 5669 5668 5667 5666 5666 5665 5663 5662 5661 5659